Showing default

GAOFEN-5, 43461

Orbit data source: Space-Track

GAOFEN-5, 43461 is a payload satellite owned by GWHYZ (CN) in SSO that was launched on Tue, 08 May 2018 UTC via a CHANG ZHENG 4C launch vehicle from the Taiyaun Space Center, China (TSC). Payload-class satellites include a variety of spacecraft equipped with specific instruments for various scientific and technological missions. These include communications satellites like Starlink; space stations such as the ISS; scientific satellites like the Hubble; Earth observation satellites from companies like Planet Labs, Umbra, and HawkEye 360; GPS; miniature CubeSats for education and research; and military/defense satellites.

Loading next visibility...
Identifier
43461, 2018-043A
Orbit
SSO
Country
Flag of CNCN / PRC
Related business
Manufacturer
SAST
Mission
Operational Civil Imaging
Bus & Motor
SAST-5000B, Unknown motor
Mass
2,700 kg wet, ~2,500 kg dry
Launch date (UTC)
2018-05-08 (8 years ago)
Launch vehicle
CHANG ZHENG 4C
Launch site
Taiyaun Space Center, China (TSC)
Object type
Payload
Rocket body
Debris
Shape & HBR
Box + 3 Pan, 4.0 m
Radar Cross Section
10.846 m², Large (>1 m²)

Expand to show TLE details & history
Last TLE update: 2 days ago

TLE from 2 days ago
0 GAOFEN-5
1 43461U 18043A   26171.34997235  .00000232  00000-0  57864-4 0  9994
2 43461  98.4569 143.0025 0003017  78.1831 281.9707 14.60607261432157
Epoch: 2026-06-20T08:23Z
TLE epoch observation values (Epoch: 2026-06-20T08:23:57.611Z)
Latitude
0.00001°
Longitude
108.44659°
Altitude
693.75 km
Speed
7.51 km/s
True Right ascension
09h 32m 00s
True Declination
0° 00' 00"
Sunlit
Object was in daylight at epoch
Visualization orbit readout
Latitude
Unknown
Longitude
Unknown
Altitude
Unknown
Speed
Unknown
Apparent Right ascension
Unknown
Apparent Declination
Unknown
Sunlit
N/A
Visualization observer readout
Local Sidereal Time
21:32:32
Azimuth
Unknown
Elevation
Unknown
Doppler factor
Unknown
Orbital elements
Apogee altitude
690.438 km
Perigee altitude
686.174 km
Semi-major axis
7,066.443 km
Eccentricity
0.0003
Inclination
98.4569°
RAAN
143.0025°
Arg. of periapsis
78.1831°
True anomaly
281.93688°
Mean anomaly
281.9707°
Eccentric anomaly
281.95379°
Mean motion
3.65378 °/min
Orbital period
98.53 mins
BSTAR
0.000057864
Loading maneuver chart data...
Computing Atmospheric mass density...
Loading historical data...
Loading historical data...
Loading historical data...
Loading historical data...
Loading historical data...
Loading historical data...
Loading historical data...
Other satellites on launch #43 in the year 2018 (2018-05-08 UTC)

Documentation

Showing up to 5 results
|